Location: Strawberry
(45.6646°N, 111.9596°W)
Time: 17:32:31
(UTC+00:00)

SR - Pass Details

Date: 07 October 2022
Orbit: 577 x 874 km, 66.7° (Epoch: 05 December)

Event Time Altitude Azimuth Distance (km) Brightness Sun altitude
Exits shadow 10:13:18 - 339° (NNW) 2,838 ? -34.5°
Reaches altitude 10° 10:14:48 10° 348° (NNW) 2,397 ? -34.3°
Maximum altitude 10:18:51 20° 35° (NE) 1,713 ? -33.7°
Drops below altitude 10° 10:22:40 10° 83° (E) 2,246 ? -33.1°
Sets 10:25:31 0° 100° (E) 3,104 ? -32.7°
